DLH8KR EDDM-RJBB

Flight info

Callsign DLH8KR
Flight time N/A
Altitude 23000
Route KIRDI3S KIRDI DCT BUWOQ DCT OBFEZ DCT STEIN DCT TEGRI DCT DINRO DCT UDROS/N0499F370 UM859 KARDE UL851 TBN UG261 NOLGA DCT BARAD M747 LUSAL N199 RASAM L88 METKA B476 DARVA/K0907F370 T898 SUDAR/K0919F390 T898 OGOLI N193 SR L163 TISIB L141 KAMUD/K0909S1190 A468 XKC B215 FKG W188 LIKMI W270 BIVOR/K0917S1250 W270 DKO W69 HUR B339 LADIX W34 VAPGU W100 ORAVA W201 UNSEK A326 DONVO G597 AGAVO/N0493F410 Y644 EGOBA Y697 LANAT Y597 MIHOU Y361 SAEKI Y36 ATMUG
Aircraft A388/J-SADE2E3FGHIJ3J4J5M1RWXY/LB1D1

Departure

Time 2026-05-04 10:19
Airport Munich Airport (EDDM)

Arrival

Time N/A
Airport Kansai International Airport (RJBB)
Time Latitude Longitude Altitude Speed Heading
2026-05-04 09:27 48.35225 11.80054 1490 ft 0 kts 263°
2026-05-04 09:35 48.35244 11.80026 1483 ft 0 kts 263°
2026-05-04 09:55 48.35244 11.80035 1475 ft 3 kts 261°
2026-05-04 09:55 48.35249 11.80062 1484 ft 3 kts 245°
2026-05-04 09:56 48.35259 11.80087 1475 ft 3 kts 233°
2026-05-04 09:56 48.35266 11.80105 1475 ft 2 kts 262°
2026-05-04 09:56 48.35269 11.80129 1475 ft 3 kts 256°
2026-05-04 09:56 48.35275 11.80154 1475 ft 3 kts 235°
2026-05-04 09:57 48.35284 11.80168 1475 ft 3 kts 203°
2026-05-04 09:57 48.35296 11.80171 1475 ft 2 kts 173°
2026-05-04 09:57 48.35317 11.80167 1475 ft 3 kts 173°
2026-05-04 09:57 48.35333 11.80164 1475 ft 0 kts 173°
2026-05-04 10:02 48.35235 11.80179 1483 ft 10 kts 175°
2026-05-04 10:04 48.35006 11.79526 1477 ft 12 kts 170°
2026-05-04 10:04 48.34930 11.79543 1490 ft 11 kts 172°
2026-05-04 10:04 48.34859 11.79556 1477 ft 10 kts 178°
2026-05-04 10:04 48.34806 11.79524 1481 ft 8 kts 226°
2026-05-04 10:05 48.34786 11.79456 1482 ft 7 kts 261°
2026-05-04 10:05 48.34778 11.79374 1479 ft 9 kts 262°
2026-05-04 10:05 48.34768 11.79277 1479 ft 10 kts 261°
2026-05-04 10:05 48.34761 11.79170 1487 ft 11 kts 264°
2026-05-04 10:06 48.34753 11.79048 1476 ft 12 kts 265°
2026-05-04 10:06 48.34745 11.78911 1490 ft 13 kts 264°
2026-05-04 10:06 48.34733 11.78768 1480 ft 14 kts 261°
2026-05-04 10:08 48.34654 11.77772 1487 ft 18 kts 263°
2026-05-04 10:08 48.34639 11.77588 1484 ft 18 kts 264°
2026-05-04 10:08 48.34626 11.77399 1480 ft 18 kts 264°
2026-05-04 10:08 48.34612 11.77204 1476 ft 19 kts 263°
2026-05-04 10:09 48.34596 11.77007 1482 ft 19 kts 263°
2026-05-04 10:09 48.34580 11.76808 1478 ft 19 kts 263°
2026-05-04 10:09 48.34564 11.76609 1478 ft 19 kts 263°
2026-05-04 10:09 48.34548 11.76414 1478 ft 19 kts 263°
2026-05-04 10:10 48.34532 11.76212 1484 ft 19 kts 263°
2026-05-04 10:10 48.34519 11.76012 1484 ft 19 kts 265°
2026-05-04 10:10 48.34506 11.75813 1480 ft 19 kts 263°
2026-05-04 10:10 48.34490 11.75613 1488 ft 19 kts 263°
2026-05-04 10:11 48.34474 11.75419 1490 ft 13 kts 263°
2026-05-04 10:11 48.34462 11.75274 1480 ft 14 kts 263°
2026-05-04 10:11 48.34447 11.75122 1478 ft 14 kts 246°
2026-05-04 10:11 48.34382 11.75044 1480 ft 11 kts 176°
2026-05-04 10:12 48.34325 11.75069 1479 ft 7 kts 165°
2026-05-04 10:12 48.34277 11.75081 1477 ft 7 kts 173°
2026-05-04 10:12 48.34233 11.75090 1477 ft 5 kts 172°
2026-05-04 10:12 48.34216 11.75094 1486 ft 0 kts 171°
2026-05-04 10:16 48.34211 11.75095 1490 ft 2 kts 171°
2026-05-04 10:16 48.34206 11.75096 1490 ft 0 kts 171°
2026-05-04 10:16 48.34190 11.75100 1480 ft 3 kts 171°
2026-05-04 10:16 48.34173 11.75104 1478 ft 6 kts 171°
2026-05-04 10:17 48.34104 11.75134 1479 ft 11 kts 140°
2026-05-04 10:17 48.34077 11.75218 1479 ft 8 kts 90°
2026-05-04 10:19 48.34799 11.85217 3285 ft 186 kts 84°
2026-05-04 10:19 48.34930 11.87242 3629 ft 199 kts 83°
2026-05-04 10:19 48.35085 11.89343 4074 ft 204 kts 83°
2026-05-04 10:19 48.35272 11.91474 4453 ft 208 kts 82°
2026-05-04 10:20 48.35262 11.93676 4670 ft 216 kts 100°
2026-05-04 10:20 48.34781 11.95880 4849 ft 232 kts 114°
2026-05-04 10:20 48.34088 11.98217 5143 ft 255 kts 114°
2026-05-04 10:20 48.33325 12.00708 5529 ft 271 kts 115°
2026-05-04 10:21 48.32529 12.03326 6208 ft 273 kts 115°
2026-05-04 10:21 48.31748 12.05907 7015 ft 272 kts 116°
2026-05-04 10:21 48.30955 12.08507 7666 ft 275 kts 116°
2026-05-04 10:21 48.30154 12.11152 8223 ft 280 kts 116°
2026-05-04 10:22 48.28562 12.16550 9411 ft 285 kts 116°
2026-05-04 10:22 48.27745 12.19286 9959 ft 288 kts 116°
2026-05-04 10:22 48.26927 12.22047 10420 ft 292 kts 116°
2026-05-04 10:23 48.26099 12.24843 10894 ft 294 kts 116°
2026-05-04 10:23 48.25268 12.27659 11342 ft 297 kts 116°
2026-05-04 10:25 48.23270 12.50400 13225 ft 353 kts 93°
2026-05-04 10:25 48.23219 12.54143 13367 ft 363 kts 93°
2026-05-04 10:25 48.23081 12.57936 13740 ft 365 kts 100°
2026-05-04 10:25 48.22708 12.61710 14088 ft 367 kts 101°
2026-05-04 10:26 48.22341 12.65513 14442 ft 369 kts 100°
2026-05-04 10:26 48.21982 12.69326 14780 ft 371 kts 100°
2026-05-04 10:26 48.21621 12.73178 15121 ft 373 kts 100°
2026-05-04 10:26 48.21258 12.77036 15437 ft 375 kts 100°
2026-05-04 10:27 48.20895 12.80910 15745 ft 377 kts 98°
2026-05-04 10:27 48.20783 12.84852 16027 ft 381 kts 90°
2026-05-04 10:27 48.20872 12.88831 16317 ft 382 kts 90°
2026-05-04 10:27 48.20939 12.92826 16573 ft 384 kts 90°
2026-05-04 10:28 48.20997 12.96836 16837 ft 386 kts 90°
2026-05-04 10:28 48.21054 13.00868 17108 ft 388 kts 90°
2026-05-04 10:28 48.21109 13.04919 17384 ft 389 kts 90°
2026-05-04 10:28 48.21164 13.08986 17640 ft 391 kts 90°
2026-05-04 10:29 48.21219 13.13067 17918 ft 393 kts 90°
2026-05-04 10:29 48.21273 13.17168 18182 ft 394 kts 90°
2026-05-04 10:29 48.21325 13.21287 18424 ft 396 kts 90°
2026-05-04 10:29 48.21376 13.25416 18649 ft 397 kts 90°
2026-05-04 10:30 48.21425 13.29505 18890 ft 398 kts 90°
2026-05-04 10:30 48.21473 13.33705 19116 ft 399 kts 90°
2026-05-04 10:30 48.21521 13.37866 19346 ft 400 kts 90°
2026-05-04 10:30 48.21566 13.42045 19581 ft 401 kts 90°
2026-05-04 10:31 48.21610 13.46163 19812 ft 402 kts 90°
2026-05-04 10:31 48.21653 13.50414 20014 ft 403 kts 90°
2026-05-04 10:32 48.21877 13.75758 21283 ft 410 kts 90°
2026-05-04 10:33 48.21909 13.80039 21471 ft 411 kts 90°
2026-05-04 10:33 48.21939 13.84330 21676 ft 411 kts 90°
2026-05-04 10:33 48.21967 13.88619 21873 ft 413 kts 90°
2026-05-04 10:33 48.21994 13.92931 22073 ft 414 kts 90°
2026-05-04 10:34 48.21826 13.97234 22248 ft 414 kts 99°